User: anonymous   Login
Location: Unspecified
(0.0000°N, 0.0000°E)
Time: 06:52:26
(UTC+00:00)
Language:

STARLINK-31713 - Orbit

View from above orbital plane
View from above orbital plane
View from above satellite
View from above satellite

Ground track
Ground track

The orbit is defined by the following mean orbital elements,

1 59381U          26145.57575492 +.00000000 +00000-0 +13032-4 0 00004
2 59381  53.1618 260.6265 0000980  83.0823 277.0291 15.34383689    08
Epoch (UTC): 25 May 2026 13:49:05
Eccentricity: 0.0000980
inclination: 53.1618°
perigee height: 462 km
apogee height: 463 km
right ascension of ascending node: 260.6265°
argument of perigee: 83.0823°
revolutions per day: 15.34383689
mean anomaly at epoch: 277.0291°

The dashed part of the orbit path shows where the satellite is in the earth's shadow,  

DLR